User: anonymous   Login
Location: Utrecht
(52.0907°N, 5.1214°E)
Time: 17:07:43
(UTC+01:00)
Language:

METEOR 1-16 DEB - Orbit

View from above orbital plane
View from above orbital plane
View from above satellite
View from above satellite

Ground track
Ground track

The orbit data is extracted from the following two-line orbital elements,

1 42999U 74011C   22333.65037281  .00001276  00000-0  59430-3 0  9991
2 42999  81.2331 213.1664 0033798 116.2676 244.1980 14.19698746329473
Epoch (UTC): 29 November 2022 15:36:32
Eccentricity: 0.0033798
inclination: 81.2331°
perigee height: 802 km
apogee height: 851 km
right ascension of ascending node: 213.1664°
argument of perigee: 116.2676°
revolutions per day: 14.19698746
mean anomaly at epoch: 244.1980°
orbit number at epoch: 32947

The dashed part of the orbit path shows where the satellite is in the earth's shadow,  

DLR